Location: Ar Gwiniman
(48.3833°N, 4.8833°W)
Time: 07:18:00
(UTC+00:00)

Daily predictions for brighter satellites

Satellite Brightness Start Highest point End
(mag) Time Altitude Azimuth Time Altitude Azimuth Time Altitude Azimuth
Lacrosse 5 3.8 20:59:55 10° WNW 21:03:40 21° SW 21:07:25 10° S
Meteor 1-16 Rocket 4.2 21:00:34 10° N 21:06:03 76° ENE 21:11:22 10° SSE
Resurs 01 Rocket 2.0 21:01:57 10° S 21:06:19 66° WSW 21:10:43 10° NNW
Ariane Rocket 4.2 21:05:10 10° S 21:09:58 42° W 21:14:50 10° NNW
Cosmos 1340 3.8 21:08:11 10° SSE 21:11:21 26° E 21:14:31 10° NE
Landsat 7 4.1 21:09:11 10° S 21:13:55 69° WSW 21:18:41 10° NNW
Aureole 1 Rocket 4.2 21:08:10 10° NNW 21:14:10 90° ENE 21:21:49 10° SSE
Cosmos 2322 4.3 21:09:04 10° S 21:14:11 37° ESE 21:19:21 10° NE
Cosmos 2278 Rocket 3.7 21:10:04 10° N 21:14:48 26° NE 21:19:31 10° ESE
COSMOS 2428 3.7 21:11:17 10° SSE 21:16:01 28° ESE 21:20:49 10° NE
SPOT 3 Rocket 3.9 21:11:04 10° S 21:16:12 68° WSW 21:21:25 10° NNW
Cosmos 1844 Rocket 2.9 21:10:37 10° NNW 21:16:19 78° WSW 21:21:58 10° SSE
Cosmos 2237 4.4 21:14:39 10° SSW 21:20:22 83° WNW 21:26:06 10° NNE
Cosmos 1867 4.4 21:17:54 10° NNW 21:23:12 45° NE 21:28:26 10° ESE
Cosmos 968 Rocket 4.2 21:23:54 10° NNW 21:28:48 43° ENE 21:33:29 11° SE
Cosmos 1908 3.5 21:27:34 10° NNW 21:31:26 68° W 21:35:15 10° S
JB-3 4.4 21:27:54 10° NNE 21:31:53 63° E 21:35:53 10° S
Cosmos 1110 Rocket 4.0 21:28:51 10° SSW 21:34:02 88° WNW 21:39:18 10° NNE
Cosmos 1626 2.1 21:30:32 10° S 21:34:12 72° E 21:37:54 10° NNE
Cosmos 1544 Rocket 3.6 21:30:19 10° N 21:34:49 87° E 21:39:16 10° S
FALCON 9 DEB 3.6 21:32:04 10° WSW 21:35:29 64° NNW 21:38:53 10° ENE
Cosmos 2061 Rocket 4.2 21:30:08 10° N 21:36:35 69° E 21:42:50 11° SSE
Cosmos 2123 Rocket 4.2 21:30:53 10° S 21:37:02 58° E 21:43:14 10° NNE
Meteor 2-10 Rocket 4.5 21:34:01 10° N 21:38:33 32° ENE 21:42:36 12° SE
Cosmos 1455 Rocket 3.8 21:34:49 10° NNW 21:39:10 53° W 21:43:30 10° S
ARIANE 5 R/B 2.7 21:38:34 10° SSE 21:42:59 87° W 21:47:32 10° NNW
Cosmos 2100 Rocket 4.5 21:41:55 10° NNW 21:48:11 62° W 21:54:23 10° S
Cosmos 1346 Rocket 4.2 21:47:03 14° SE 21:49:24 23° E 21:52:37 10° NE
ATLAS CENTAUR R/B 1.9 21:46:30 10° NW 21:50:47 59° SW 21:54:30 15° SSE
Cosmos 405 2.9 21:47:21 10° N 21:50:49 84° ENE 21:53:33 15° SSE
Cosmos 2333 4.2 21:47:32 10° SSW 21:53:17 84° ESE 21:59:02 10° NNE
ATLAS 3B R/B 2.6 21:49:19 10° SSW 21:55:50 73° SE 22:02:36 10° NE
SL-4 R/B 3.0 21:54:29 10° SSW 21:57:54 24° SE 22:01:07 10° E
FALCON 9 DEB 2.8 21:56:40 10° SW 21:59:45 66° SSE 22:02:53 10° ENE
Cosmos 2016 Rocket 4.1 21:58:59 10° NNW 22:05:05 73° W 22:11:00 11° S
CZ-4B DEB 4.3 22:03:26 20° SSE 22:05:25 64° ENE 22:08:34 10° N
Cosmos 2219 Rocket 2.2 22:00:10 10° SSW 22:05:50 77° ESE 22:11:32 10° NNE
Cosmos 1025 Rocket 3.8 22:02:22 10° SSW 22:06:39 53° WNW 22:10:56 10° N
Meteor 2-5 Rocket 3.7 22:01:13 10° S 22:06:43 72° E 22:12:21 10° NNE
Lacrosse 5 rocket 1.8 22:03:35 10° WSW 22:07:11 54° NNW 22:10:43 10° NE
Cosmos 2333 Rocket 2.2 22:01:43 10° SSW 22:07:29 89° ESE 22:13:14 10° NNE
ERS-1 Rocket 3.2 22:04:07 13° S 22:08:36 69° WSW 22:13:39 10° NNW
Geosat 4.2 22:04:47 16° SSE 22:08:50 67° WSW 22:13:52 10° NNW
Cosmos 1536 Rocket 3.6 22:05:20 10° S 22:09:48 89° W 22:14:16 10° N
Cosmos 2228 3.5 22:06:55 10° N 22:11:14 50° ENE 22:14:06 19° SE
Spot 2 Rocket 4.4 22:08:53 10° S 22:13:41 44° W 22:18:34 10° NNW
FALCON 9 DEB 3.0 22:12:13 10° WSW 22:15:19 76° NNW 22:18:26 10° ENE
Cosmos 1725 Rocket 4.3 22:13:24 10° NNW 22:19:32 66° W 22:25:09 12° S
SL-24 R/B 4.3 22:16:09 10° N 22:21:01 78° E 22:24:49 17° S
USA 215 4.0 22:15:39 10° ENE 22:21:10 28° SE 22:25:28 15° S
SL-14 R/B 4.0 22:17:28 10° SSW 22:21:25 52° WNW 22:25:22 10° N
FALCON 9 DEB 2.9 22:20:14 10° WSW 22:23:22 81° NNW 22:26:30 10° ENE
Terra 2.0 22:20:12 17° S 22:23:51 69° WSW 22:28:38 10° NNW
SL-16 R/B 4.1 22:23:55 12° ESE 22:25:36 13° E 22:28:05 10° ENE
FALCON 9 DEB 3.2 22:22:48 10° WSW 22:25:54 68° NNW 22:29:00 10° ENE
Cosmos 2237 Rocket 2.8 22:23:45 19° SSE 22:27:07 36° ESE 22:32:13 10° NE
Cosmos 1455 3.1 22:24:33 10° N 22:28:06 35° ENE 22:29:59 22° SE
Cosmos 1184 Rocket 4.4 22:29:49 19° ESE 22:30:27 20° E 22:32:57 10° NE
Cosmos 2360 Rocket 3.9 22:25:29 10° WSW 22:30:37 35° NW 22:35:46 10° NNE
SPOT 5 3.8 22:27:29 13° SSW 22:31:48 43° W 22:36:26 10° NNW
H-2A R/B 3.4 22:29:10 10° NNE 22:33:16 88° E 22:36:19 18° SSW
Cosmos 1503 Rocket 4.2 22:29:02 10° NNW 22:34:25 67° ENE 22:37:58 21° SE
Meteor 1-24 Rocket 3.7 22:33:33 12° SSW 22:38:29 79° WNW 22:44:03 10° N
Cosmos 1300 4.0 22:35:01 10° NNW 22:38:30 34° W 22:41:15 14° SSW
GEOS 3 Rocket 4.2 22:38:08 13° ESE 22:42:48 55° NE 22:48:00 10° NW
ATLAS CENTAUR R/B 3.7 22:40:45 22° SSE 22:43:16 32° ESE 22:52:24 10° NE
Okean 1-7 Rocket 4.4 22:54:15 25° SE 22:56:04 36° E 23:00:09 10° NNE
USA 267 3.8 22:49:54 10° E 22:56:17 58° NNE 23:02:41 10° NW
Cosmos 389 Rocket 3.0 22:53:15 10° NNW 22:56:36 49° W 22:58:04 28° SSW
GENESIS II 4.1 22:54:50 17° SSW 22:57:49 79° SE 23:01:44 10° NE
BREEZE-M DEB (TANK) 2.3 22:55:02 10° WSW 22:57:56 89° N 23:05:15 10° ENE
Cosmos 2278 Rocket 2.3 22:53:46 10° NNW 22:59:25 69° WSW 23:02:45 25° S
COSMOS 2428 3.4 22:54:19 10° SW 22:59:58 56° WNW 23:05:39 10° NNE
Cosmos 1726 Rocket 3.6 22:57:13 10° NNW 23:01:41 79° W 23:03:59 28° S
Cosmos 2058 Rocket 3.2 22:57:52 10° N 23:02:18 67° ENE 23:04:24 30° SSE
Centaur D AC-29 4.3 22:58:45 10° WSW 23:05:43 13° SW 23:09:10 11° SSW
Cosmos 2034 Rocket 4.4 23:00:14 10° N 23:06:17 53° ENE 23:10:01 23° SE
Cosmos 1867 4.4 23:01:41 10° NW 23:06:46 39° WSW 23:09:33 23° S
NOSS 0 Rocket 3.9 23:01:54 11° SSW 23:07:55 90° E 23:14:13 10° NNE
SJ 16-02 2.7 23:10:54 10° N 23:14:49 31° ENE 23:17:27 17° ESE
Cosmos 1606 Rocket 4.4 23:13:01 10° NNW 23:17:16 43° W 23:19:39 23° SSW
Meteor 1-21 Rocket 4.3 23:14:30 27° S 23:17:39 67° E 23:23:21 10° NNE
Cosmos 1777 Rocket 4.2 23:14:41 10° NNW 23:19:59 69° ENE 23:22:56 26° SE
Spot 4 3.8 23:20:17 30° SSE 23:22:39 85° WSW 23:27:28 10° NNW
Cosmos 1892 Rocket 3.7 23:21:07 26° SSW 23:23:32 71° W 23:28:01 10° N
Cosmos 1943 Rocket 3.0 23:19:34 10° NNW 23:24:51 44° NE 23:28:52 17° ESE
Cosmos 1346 Rocket 4.3 23:22:31 13° SW 23:25:35 32° WNW 23:29:16 10° N
Meteor 1-4 Rocket 3.0 23:22:17 10° N 23:25:40 46° ENE 23:26:36 35° ESE
Cosmos 1441 Rocket 3.1 23:29:44 40° S 23:31:02 81° E 23:34:52 10° NNE
Cosmos 1354 Rocket 4.5 23:27:38 10° NNW 23:32:48 50° WSW 23:35:22 27° SSW
FALCON 9 DEB 4.4 23:32:39 10° W 23:35:38 38° N 23:38:36 10° ENE
ALOS 2 2.6 23:35:17 34° SSE 23:37:08 79° ENE 23:41:33 10° NNW
SL-4 R/B 1.7 23:33:07 10° WSW 23:37:11 89° SSE 23:40:57 10° ENE
Tsikada Rocket 4.3 23:34:13 27° SSE 23:37:28 54° E 23:43:28 10° NNE
Cosmos 1980 4.0 23:33:00 13° SW 23:38:01 67° WNW 23:43:44 10° NNE
Cosmos 1703 3.4 23:44:02 35° SSW 23:45:33 69° W 23:49:30 10° N
Lacrosse 5 rocket 3.7 23:43:59 10° WNW 23:46:52 22° N 23:49:44 10° NE
ATLAS 3B R/B 4.2 23:41:02 10° W 23:47:06 37° NNW 23:53:24 10° NE
NOSS 3-1 (C) 3.6 23:46:44 31° SSE 23:48:48 45° ESE 23:54:37 10° NE
Cosmos 2219 Rocket 4.4 23:45:51 10° W 23:50:25 24° NW 23:55:00 10° N
Cosmos 724 4.3 23:44:43 10° NW 23:50:56 79° WSW 23:54:21 28° SSE
Cosmos 1626 Rocket 3.5 23:49:24 37° S 23:51:08 80° E 23:55:35 10° NNE
Elektron 1 3.6 23:50:04 10° NW 23:53:10 85° NE 23:53:44 54° SE
OPS 6432 4.5 23:50:57 10° NW 23:53:56 65° NE 23:54:58 38° ESE
